Location: Hannover
(52.3723°N, 9.7339°E)
Time: 07:40:21
(UTC+01:00)

ISS - Pass Details

Date: 13 November 2017
Orbit: 402 x 407 km, 51.6° (Epoch: 19 November)

Event Time Altitude Azimuth Distance (km) Brightness Sun altitude
Exits shadow 06:35:23 12° 261° (W) 1,342 -1.7 -9.7°
Maximum altitude 06:37:35 22° 213° (SSW) 946 -2.1 -9.4°
Drops below altitude 10° 06:40:10 10° 161° (SSE) 1,451 -0.5 -9.0°
Sets 06:42:31 0° 145° (SE) 2,307 1.0 -8.7°
